sat.trackr.live / text

‹ back to catalog

ONEWEB-0025

NORAD 45138 · 2020-008H

PAYLOAD ACTIVE UNKNOWN

§ Identity

Operator
Country
UK
Launch date
2020-02-06
Launch site
TYMSC
Launch vehicle
Mass (kg)
RCS (m²)

Purposes: comms

External: N2YO · Heavens-Above · Gunter

§ Orbital elements

Epoch: 2026-09-14T14:39:57.098592Z

Period
109.89 min
Inclination
87.8911°
Eccentricity
0.0001374
Mean motion
13.10376036 rev/d
Perigee alt
1,220.7 km
Apogee alt
1,222.7 km
Semi-major
7,599.8 km
B*
-7.6380e-4
RAAN
18.4496°
Arg perigee
111.3340°
Mean anomaly
248.7935°
Rev number
32,028

§ Raw data

ONEWEB-00251 45138U 20008H   26257.61107753 -.00000254  00000+0 -76380-3 0  99922 45138  87.8911  18.4496 0001374 111.3340 248.7935 13.10376036320280

JSON: /api/v1/satellites/45138 · /tle

For live sub-satellite position, see the globe view (requires WebGL).

§ Visibility from observer

Set your observer location to see the next 7 days of passes ≥ 10°. The values pass through the URL so the page stays shareable.

No JS? Fill the form by hand. The geolocation button needs JavaScript.